Estación de Algarrobo Bajo INIA

Ultimos registro cada 15 minutos 59
Estación Fecha / Hora Temperatura Humedad Lluvia Velocidad Dirección Radiación Presion
59 Algarrobo Bajo INIA 02-09-2026 14:30 23,5 47,5 0 0,8 220 344,7 0
58 Algarrobo Bajo INIA 02-09-2026 14:15 23,3 44,8 0 0,5 278 391,4 0
57 Algarrobo Bajo INIA 02-09-2026 14:00 23,1 50 0 0,5 235 371,6 0
56 Algarrobo Bajo INIA 02-09-2026 13:45 23 50,1 0 0,7 174 397,8 0
55 Algarrobo Bajo INIA 02-09-2026 13:30 22,5 50,5 0 0,2 206 377 0
54 Algarrobo Bajo INIA 02-09-2026 13:15 22,4 49,5 0 0,4 204 377,7 0
53 Algarrobo Bajo INIA 02-09-2026 13:00 22,5 52,2 0 0,2 283 336,6 0
52 Algarrobo Bajo INIA 02-09-2026 12:45 22,6 49,6 0 0,2 199 449,9 0
51 Algarrobo Bajo INIA 02-09-2026 12:30 21,5 48 0 0,7 251 495,6 0
50 Algarrobo Bajo INIA 02-09-2026 12:15 20,9 52,1 0 1,1 239 357,1 0
49 Algarrobo Bajo INIA 02-09-2026 12:00 20,7 54,1 0 0,9 198 367,9 0
48 Algarrobo Bajo INIA 02-09-2026 11:45 20,2 54,8 0 0,9 199 371,9 0
47 Algarrobo Bajo INIA 02-09-2026 11:30 19,6 58,4 0 1 214 363,2 0
46 Algarrobo Bajo INIA 02-09-2026 11:15 19 63 0 1,3 218 349,8 0
45 Algarrobo Bajo INIA 02-09-2026 11:00 18,5 63,6 0 1,1 242 355,3 0
44 Algarrobo Bajo INIA 02-09-2026 10:45 18,1 65,9 0 1,1 222 393,6 0
43 Algarrobo Bajo INIA 02-09-2026 10:30 17,5 67,5 0 0,6 204 390,8 0
42 Algarrobo Bajo INIA 02-09-2026 10:15 17,2 68,3 0 0,5 186 394,5 0
41 Algarrobo Bajo INIA 02-09-2026 10:00 16,5 71,9 0 1,1 192 494 0
40 Algarrobo Bajo INIA 02-09-2026 09:45 16,2 72,3 0 0,2 157 312,8 0
39 Algarrobo Bajo INIA 02-09-2026 09:30 15,2 72,3 0 0,2 269 425 0
38 Algarrobo Bajo INIA 02-09-2026 09:15 14,4 76,6 0 0,2 176 340,8 0
37 Algarrobo Bajo INIA 02-09-2026 09:00 13,7 83,3 0 0 161 182,3 0
36 Algarrobo Bajo INIA 02-09-2026 08:45 13,1 86,2 0 0,1 62 258,1 0
35 Algarrobo Bajo INIA 02-09-2026 08:30 11,7 93,2 0 0 0 179,4 0
34 Algarrobo Bajo INIA 02-09-2026 08:15 10,9 94,2 0 0 0 83,9 0
33 Algarrobo Bajo INIA 02-09-2026 08:00 9,8 95,1 0 0 0 77 0
32 Algarrobo Bajo INIA 02-09-2026 07:45 9,8 94 0 0 4 28,2 0
31 Algarrobo Bajo INIA 02-09-2026 07:30 9,6 94,5 0 0 17 17,8 0
30 Algarrobo Bajo INIA 02-09-2026 07:15 9,3 94,1 0 0,2 346 6,6 0
29 Algarrobo Bajo INIA 02-09-2026 07:00 9,6 93,9 0 0 295 1,5 0
28 Algarrobo Bajo INIA 02-09-2026 06:45 9,5 93,8 0 0,2 297 0,1 0
27 Algarrobo Bajo INIA 02-09-2026 06:30 9,4 93,6 0 0,1 261 0 0
26 Algarrobo Bajo INIA 02-09-2026 06:15 9,4 92,5 0 0,3 270 0 0
25 Algarrobo Bajo INIA 02-09-2026 06:00 10,7 90,8 0 0,5 241 0 0
24 Algarrobo Bajo INIA 02-09-2026 05:45 11 90,4 0 1,1 49 0 0
23 Algarrobo Bajo INIA 02-09-2026 05:30 11,4 90,3 0 0,7 52 0 0
22 Algarrobo Bajo INIA 02-09-2026 05:15 11,2 91,9 0 0,2 10 0 0
21 Algarrobo Bajo INIA 02-09-2026 05:00 11 91,8 0 0,8 40 0 0
20 Algarrobo Bajo INIA 02-09-2026 04:45 10,8 92,2 0 1 46 0 0
19 Algarrobo Bajo INIA 02-09-2026 04:30 10,6 92,3 0 1,2 52 0 0
18 Algarrobo Bajo INIA 02-09-2026 04:15 10,6 91,9 0 1,1 55 0 0
17 Algarrobo Bajo INIA 02-09-2026 04:00 11,1 90,8 0 0 0 0 0
16 Algarrobo Bajo INIA 02-09-2026 03:45 11,2 91,3 0 0 0 0 0
15 Algarrobo Bajo INIA 02-09-2026 03:30 11,1 91,4 0 0 0 0 0
14 Algarrobo Bajo INIA 02-09-2026 03:15 10,7 91,6 0 0,6 48 0 0
13 Algarrobo Bajo INIA 02-09-2026 03:00 11,5 89,1 0 0 0 0 0
12 Algarrobo Bajo INIA 02-09-2026 02:45 11,4 90,5 0 0 0 0 0
11 Algarrobo Bajo INIA 02-09-2026 02:30 11,3 91,4 0 0 0 0 0
10 Algarrobo Bajo INIA 02-09-2026 02:15 11,1 91,9 0 0,2 270 0 0
9 Algarrobo Bajo INIA 02-09-2026 02:00 10,8 92,5 0 0,3 284 0 0
8 Algarrobo Bajo INIA 02-09-2026 01:45 10,7 92 0 0 250 0 0
7 Algarrobo Bajo INIA 02-09-2026 01:30 10,7 91,7 0 0,2 271 0 0
6 Algarrobo Bajo INIA 02-09-2026 01:15 10,8 90,7 0 0,1 242 0 0
5 Algarrobo Bajo INIA 02-09-2026 01:00 10,6 90,1 0 0 0 0 0
4 Algarrobo Bajo INIA 02-09-2026 00:45 11,5 87,6 0 0 0 0 0
3 Algarrobo Bajo INIA 02-09-2026 00:30 12 86,9 0 0,2 44 0 0
2 Algarrobo Bajo INIA 02-09-2026 00:15 12 87,1 0 0,4 42 0 0
1 Algarrobo Bajo INIA 02-09-2026 00:00 11,8 87,1 0 0,1 6 0 0